GW3985 Weather Reports


time (UTC)temp
C
wind
direction
speed
KPH
gust
KPH
rain 1hr
cm
rain 24hr
cm
rain mn
cm
humidity
%
barometer
mb
20260504034517 14 140 0.0 3.2 0.00 0.00 0.00 40 1016.7
20260504033514 14 65 0.0 1.6 0.00 0.00 0.00 38 1016.6
20260504032515 14 0.0 0.0 0.00 0.00 0.00 37 1016.7
20260504031515 15 0.0 0.0 0.00 0.00 0.00 36 1016.7
20260504030536 15 0.0 0.0 0.00 0.00 0.00 35 1016.6
20260504025516 15 0.0 0.0 0.00 0.00 0.00 35 1016.6
20260504024517 15 0.0 0.0 0.00 0.00 0.00 34 1016.5
20260504023517 15 0.0 0.0 0.00 0.00 0.00 33 1016.5
20260504022515 15 0.0 0.0 0.00 0.00 0.00 33 1016.6
20260504021515 16 48 0.0 1.6 0.00 0.00 0.00 32 1016.5
20260504020535 16 50 0.0 1.6 0.00 0.00 0.00 32 1016.5
20260504015516 16 0.0 0.0 0.00 0.00 0.00 31 1016.3
20260504014516 17 0.0 0.0 0.00 0.00 0.00 30 1016.3
20260504013537 17 0.0 0.0 0.00 0.00 0.00 30 1016.3
20260504012537 17 278 0.0 3.2 0.00 0.00 0.00 29 1016.3
20260504011555 17 290 0.0 3.2 0.00 0.00 0.00 29 1016.2
20260504010515 18 50 0.0 6.4 0.00 0.00 0.00 28 1016.2
20260504005516 18 2 1.6 6.4 0.00 0.00 0.00 27 1016.2
20260504004516 18 17 0.0 4.8 0.00 0.00 0.00 27 1016.1
20260504003516 18 92 0.0 4.8 0.00 0.00 0.00 27 1016.1
20260504002517 19 1 1.6 4.8 0.00 0.00 0.00 26 1016.1
20260504001517 20 39 0.0 3.2 0.00 0.00 0.00 25 1016.0
20260504000515 20 32 1.6 8.0 0.00 0.00 0.00 23 1015.9
20260503235515 21 352 0.0 3.2 0.00 0.00 0.00 21 1016.0
20260503234536 21 50 1.6 4.8 0.00 0.00 0.00 21 1016.1
20260503233536 21 46 0.0 4.8 0.00 0.00 0.00 21 1016.1
20260503232516 21 337 1.6 4.8 0.00 0.00 0.00 20 1016.0
20260503231517 22 355 1.6 6.4 0.00 0.00 0.00 19 1016.0
20260503230514 22 11 0.0 3.2 0.00 0.00 0.00 18 1016.0
20260503225515 22 5 1.6 4.8 0.00 0.00 0.00 18 1016.0
20260503224535 22 343 1.6 4.8 0.00 0.00 0.00 18 1016.0
20260503223516 22 50 0.0 3.2 0.00 0.00 0.00 18 1016.1
20260503222516 22 215 0.0 4.8 0.00 0.00 0.00 18 1016.2
20260503221536 22 230 0.0 6.4 0.00 0.00 0.00 18 1016.4
20260503220517 22 228 0.0 4.8 0.00 0.00 0.00 17 1016.6
20260503215515 22 160 0.0 3.2 0.00 0.00 0.00 18 1016.7
20260503214516 22 226 1.6 4.8 0.00 0.00 0.00 17 1016.9
20260503213515 23 64 1.6 6.4 0.00 0.00 0.00 18 1016.9
20260503212516 22 53 0.0 4.8 0.00 0.00 0.00 16 1017.2
20260503211536 23 110 0.0 1.6 0.00 0.00 0.00 17 1017.3
20260503210517 23 146 1.6 4.8 0.00 0.00 0.00 16 1017.4
20260503205537 23 265 0.0 3.2 0.00 0.00 0.00 17 1017.5
20260503204515 23 274 1.6 6.4 0.00 0.00 0.00 16 1017.8
20260503203515 23 38 3.2 14.5 0.00 0.00 0.00 17 1017.9
20260503202535 23 112 1.6 4.8 0.00 0.00 0.00 15 1018.1
20260503201536 23 120 1.6 6.4 0.00 0.00 0.00 16 1018.3
20260503200516 23 305 1.6 4.8 0.00 0.00 0.00 16 1018.5
20260503195517 23 301 1.6 11.3 0.00 0.00 0.00 16 1018.5
20260503194015 23 206 0.0 3.2 0.00 0.00 0.00 16 1018.7
20260503193015 22 130 1.6 4.8 0.00 0.00 0.00 16 1018.8
20260503192016 22 141 3.2 6.4 0.00 0.00 0.00 15 1018.9
20260503191056 22 134 1.6 4.8 0.00 0.00 0.00 17 1019.2
20260503190037 22 269 1.6 3.2 0.00 0.00 0.00 18 1019.5
20260503185017 21 52 1.6 8.0 0.00 0.00 0.00 20 1019.6
20260503184037 21 80 1.6 4.8 0.00 0.00 0.00 20 1019.8
20260503183015 21 214 1.6 3.2 0.00 0.00 0.00 21 1020.0
20260503182015 21 352 0.0 3.2 0.00 0.00 0.00 22 1020.1
20260503181015 20 80 0.0 3.2 0.00 0.00 0.00 23 1020.3
20260503180016 20 65 1.6 9.7 0.00 0.00 0.00 23 1020.3
20260503175016 19 250 1.6 4.8 0.00 0.00 0.00 24 1020.5
20260503174017 18 243 1.6 6.4 0.00 0.00 0.00 24 1020.7
20260503173037 18 257 4.8 12.9 0.00 0.00 0.00 24 1020.9
20260503172015 18 254 1.6 6.4 0.00 0.00 0.00 23 1021.1
20260503171015 18 234 3.2 9.7 0.00 0.00 0.00 23 1021.2
20260503131017 10 134 3.2 8.0 0.00 0.00 0.00 40 1021.7
20260503081015 10 133 3.2 6.4 0.00 0.00 0.00 36 1021.5
20260503072037 10 130 1.6 4.8 0.00 0.00 0.00 34 1021.9
20260503071015 11 135 1.6 4.8 0.00 0.00 0.00 34 1021.9
20260503055015 11 134 6.4 12.9 0.00 0.00 0.00 33 1022.0
20260503054015 11 133 6.4 16.1 0.00 0.00 0.00 33 1022.0
20260503053036 11 135 6.4 12.9 0.00 0.00 0.00 34 1021.9
20260503052016 11 136 4.8 14.5 0.00 0.00 0.00 33 1021.9
20260503051016 11 138 4.8 12.9 0.00 0.00 0.00 33 1022.0
20260503050037 11 141 4.8 9.7 0.00 0.00 0.00 33 1022.0
20260503045015 11 137 3.2 12.9 0.00 0.00 0.00 33 1022.0
20260503044015 11 134 3.2 11.3 0.00 0.00 0.00 33 1022.1
20260503043016 11 137 4.8 17.7 0.00 0.00 0.00 33 1022.2
20260503042016 12 135 4.8 14.5 0.00 0.00 0.00 33 1022.2
20260503041016 12 135 4.8 14.5 0.00 0.00 0.00 33 1022.2
20260503040017 12 136 6.4 19.3 0.00 0.00 0.00 32 1022.2
20260503035014 12 134 3.2 11.3 0.00 0.00 0.00 31 1022.2